Location: Campestrin
(46.4667°N, 11.7167°E)
Time: 03:07:25
(UTC+00:00)

SPOT 5 - Pass Details

Date: 18 April 2021
Orbit: 624 x 814 km, 98.2° (Epoch: 16 May)

Event Time Altitude Azimuth Distance (km) Brightness Sun altitude
Exits shadow 19:40:16 18° 86° (E) 1,621 4.3 -15.5°
Maximum altitude 19:41:41 21° 61° (ENE) 1,514 4.3 -15.7°
Drops below altitude 10° 19:45:11 10° 13° (NNE) 2,170 5.6 -16.1°
Sets 19:47:57 0° 358° (N) 3,130 6.8 -16.5°
